CW4525 Weather Reports


time (UTC)temp
F
wind
direction
speed
knots
gust
knots
rain 1hr
in
rain 24hr
in
rain mn
in
humidity
%
barometer
mb
20260504201545 69 280 11.3 20.9 0.00 0.00 0.00 30 1002.3
20260504200043 70 250 13.0 24.3 0.00 0.00 0.00 31 1002.5
20260504194550 70 236 8.7 20.9 0.00 0.00 0.00 31 1002.4
20260504193046 70 209 10.4 19.1 0.00 0.00 0.00 32 1002.4
20260504191605 70 276 9.6 21.7 0.00 0.00 0.00 34 1002.5
20260504190040 69 228 7.0 22.6 0.00 0.00 0.00 32 1002.5
20260504184549 69 244 7.0 29.5 0.00 0.00 0.00 33 1002.5
20260504183035 69 262 10.4 21.7 0.00 0.00 0.00 32 1002.7
20260504181535 69 174 11.3 17.4 0.00 0.00 0.00 32 1002.6
20260504180035 67 250 9.6 24.3 0.00 0.00 0.00 33 1003.0
20260504174530 67 257 13.0 23.5 0.00 0.00 0.00 32 1003.0
20260504173029 67 242 11.3 23.5 0.00 0.00 0.00 33 1003.0
20260504171526 66 254 6.1 20.9 0.00 0.00 0.00 37 1003.0
20260504081549 44 213 3.5 7.8 0.00 0.00 0.00 62 1005.9
20260504044533 40 215 3.5 7.8 0.00 0.00 0.00 61 1006.1
20260504043026 40 229 3.5 7.8 0.00 0.00 0.00 61 1006.1
20260504041522 40 217 2.6 6.1 0.00 0.00 0.00 61 1006.0
20260504040020 40 231 3.5 7.0 0.00 0.00 0.00 61 1005.8
20260504034520 41 232 3.5 8.7 0.00 0.00 0.00 60 1005.9
20260504033019 41 205 3.5 6.1 0.00 0.00 0.00 60 1005.7
20260504031518 41 193 1.7 4.3 0.00 0.00 0.00 58 1005.6
20260504030017 41 199 3.5 6.1 0.00 0.00 0.00 58 1005.7
20260504024519 41 228 2.6 5.2 0.00 0.00 0.00 59 1005.7
20260504023017 42 220 3.5 6.1 0.00 0.00 0.00 59 1005.6
20260504021516 42 235 2.6 6.1 0.00 0.00 0.00 57 1005.6
20260504020015 43 210 2.6 5.2 0.00 0.00 0.00 56 1005.6
20260504014515 43 202 1.7 5.2 0.00 0.01 0.00 55 1005.5
20260504013023 43 221 0.9 4.3 0.00 0.01 0.00 55 1005.5
20260504011513 43 221 1.7 4.3 0.00 0.01 0.00 54 1005.1
20260504010013 44 250 0.0 0.9 0.00 0.01 0.00 54 1005.0
20260504004515 45 277 0.0 1.7 0.00 0.03 0.00 52 1004.8
20260504003022 45 277 0.9 4.3 0.00 0.03 0.00 51 1004.6
20260504001512 46 269 1.7 5.2 0.00 0.03 0.00 50 1004.5
20260504000011 47 303 3.5 7.8 0.00 0.03 0.00 48 1004.4
20260503234511 47 285 4.3 11.3 0.00 0.05 0.00 47 1004.3
20260503233011 48 263 6.1 12.2 0.00 0.05 0.00 47 1004.1
20260503231510 48 327 5.2 9.6 0.00 0.05 0.00 47 1004.0
20260503230010 48 232 5.2 13.0 0.00 0.05 0.00 46 1003.9
20260503224516 48 273 5.2 10.4 0.00 0.07 0.00 46 1003.9
20260503223010 48 303 7.0 17.4 0.00 0.07 0.00 45 1003.6
20260503221509 49 308 7.8 16.5 0.00 0.07 0.00 44 1003.4
20260503220017 50 305 9.6 21.7 0.00 0.07 0.00 43 1003.4
20260503214510 49 269 6.1 18.2 0.00 0.09 0.00 45 1003.4
20260503213008 49 263 10.4 19.1 0.00 0.09 0.00 42 1003.2
20260503211506 49 332 7.0 20.9 0.00 0.09 0.00 43 1002.9
20260503210007 49 275 13.9 20.9 0.00 0.09 0.00 41 1002.8
20260503204506 49 317 9.6 20.9 0.00 0.12 0.00 43 1002.7
20260503203003 49 301 11.3 20.0 0.00 0.12 0.00 43 1002.6